| time (UTC) | temp F | wind direction | speed MPH | gust MPH | rain 1hr in | rain 24hr in | rain mn in | humidity % | barometer mb |
| 20260904154804 | 86 | 302 | 6.0 | 10.0 | 0.00 | 0.08 | 0.05 | 66 | 1012.2 |
| 20260904153304 | 86 | 302 | 5.0 | 12.0 | 0.00 | 0.08 | 0.05 | 66 | 1012.4 |
| 20260904152804 | 86 | 306 | 7.0 | 14.0 | 0.00 | 0.08 | 0.05 | 66 | 1012.6 |
| 20260904151803 | 86 | 326 | 3.0 | 9.0 | 0.00 | 0.08 | 0.05 | 67 | 1012.5 |
| 20260904151303 | 85 | 312 | 6.0 | 12.0 | 0.00 | 0.08 | 0.05 | 68 | 1012.4 |
| 20260904150803 | 85 | 320 | 7.0 | 13.0 | 0.00 | 0.08 | 0.05 | 68 | 1012.4 |
| 20260904150304 | 85 | 334 | 6.0 | 10.0 | 0.00 | 0.08 | 0.05 | 68 | 1012.4 |
| 20260904145803 | 85 | 342 | 5.0 | 12.0 | 0.00 | 0.08 | 0.05 | 68 | 1012.3 |
| 20260904145305 | 85 | 337 | 9.0 | 13.0 | 0.00 | 0.08 | 0.05 | 68 | 1012.5 |
| 20260904144804 | 84 | 305 | 7.0 | 12.0 | 0.00 | 0.08 | 0.05 | 69 | 1012.5 |
| 20260904144304 | 84 | 285 | 5.0 | 9.0 | 0.00 | 0.08 | 0.05 | 70 | 1012.4 |
| 20260904143804 | 83 | 355 | 3.0 | 9.0 | 0.00 | 0.08 | 0.05 | 72 | 1012.5 |
| 20260904143304 | 83 | 12 | 5.0 | 13.0 | 0.00 | 0.08 | 0.05 | 71 | 1012.5 |
| 20260904142804 | 83 | 339 | 7.0 | 13.0 | 0.00 | 0.08 | 0.05 | 72 | 1012.5 |
| 20260904142306 | 83 | 11 | 9.0 | 14.0 | 0.00 | 0.08 | 0.05 | 71 | 1012.3 |
| 20260904141803 | 83 | 14 | 11.0 | 17.0 | 0.00 | 0.08 | 0.05 | 71 | 1012.3 |
| 20260904140803 | 83 | 329 | 10.0 | 17.0 | 0.00 | 0.08 | 0.05 | 73 | 1012.4 |
| 20260904140303 | 83 | 277 | 6.0 | 15.0 | 0.00 | 0.08 | 0.05 | 74 | 1012.3 |
| 20260904135804 | 83 | 302 | 5.0 | 12.0 | 0.00 | 0.08 | 0.05 | 74 | 1012.3 |
| 20260904135306 | 82 | 306 | 5.0 | 12.0 | 0.00 | 0.08 | 0.05 | 75 | 1012.3 |
| 20260904134304 | 82 | 321 | 6.0 | 10.0 | 0.00 | 0.08 | 0.05 | 76 | 1012.6 |
| 20260904133803 | 82 | 349 | 6.0 | 12.0 | 0.00 | 0.08 | 0.05 | 77 | 1012.6 |
| 20260904132803 | 81 | 327 | 5.0 | 14.0 | 0.00 | 0.08 | 0.05 | 79 | 1012.3 |
| 20260904132306 | 80 | 335 | 5.0 | 9.0 | 0.00 | 0.08 | 0.05 | 81 | 1012.3 |
| 20260904131804 | 79 | 344 | 3.0 | 8.0 | 0.00 | 0.08 | 0.05 | 81 | 1012.3 |
| 20260904131303 | 79 | 315 | 6.0 | 12.0 | 0.00 | 0.08 | 0.05 | 83 | 1012.2 |
| 20260904130803 | 78 | 309 | 6.0 | 10.0 | 0.00 | 0.08 | 0.05 | 87 | 1012.2 |
| 20260904125803 | 77 | 302 | 0.0 | 2.0 | 0.01 | 0.08 | 0.05 | 92 | 1012.3 |
| 20260904125305 | 76 | 302 | 0.0 | 2.0 | 0.01 | 0.08 | 0.05 | 93 | 1012.3 |
| 20260904124803 | 75 | 302 | 1.0 | 3.0 | 0.01 | 0.08 | 0.05 | 94 | 1012.3 |
| 20260904124303 | 75 | 288 | 2.0 | 3.0 | 0.01 | 0.08 | 0.05 | 94 | 1012.3 |
| 20260904123803 | 74 | 225 | 2.0 | 5.0 | 0.01 | 0.08 | 0.05 | 94 | 1012.4 |
| 20260904123303 | 74 | 308 | 3.0 | 8.0 | 0.01 | 0.08 | 0.05 | 95 | 1012.5 |
| 20260904122804 | 73 | 301 | 2.0 | 5.0 | 0.01 | 0.08 | 0.05 | 95 | 1012.5 |
| 20260904121803 | 73 | 319 | 4.0 | 8.0 | 0.01 | 0.08 | 0.05 | 95 | 1012.4 |
| 20260904120304 | 72 | 300 | 5.0 | 9.0 | 0.01 | 0.08 | 0.05 | 95 | 1012.2 |
| 20260904115306 | 72 | 296 | 5.0 | 9.0 | 0.00 | 0.07 | 0.04 | 95 | 1012.2 |
| 20260904114804 | 72 | 282 | 5.0 | 8.0 | 0.00 | 0.07 | 0.04 | 95 | 1012.2 |
| 20260904114304 | 72 | 303 | 3.0 | 9.0 | 0.00 | 0.07 | 0.04 | 95 | 1012.2 |
| 20260904113804 | 71 | 281 | 3.0 | 7.0 | 0.00 | 0.07 | 0.04 | 95 | 1012.1 |
| 20260904113304 | 71 | 282 | 2.0 | 9.0 | 0.00 | 0.07 | 0.04 | 95 | 1012.1 |
| 20260904112804 | 71 | 315 | 2.0 | 8.0 | 0.00 | 0.07 | 0.04 | 95 | 1012.1 |
| 20260904112305 | 71 | 299 | 2.0 | 6.0 | 0.00 | 0.07 | 0.04 | 95 | 1012.0 |
| 20260904111803 | 71 | 299 | 2.0 | 7.0 | 0.00 | 0.07 | 0.04 | 95 | 1012.0 |
| 20260904111303 | 71 | 277 | 5.0 | 9.0 | 0.00 | 0.07 | 0.04 | 95 | 1012.0 |
| 20260904110803 | 71 | 287 | 2.0 | 6.0 | 0.00 | 0.07 | 0.04 | 95 | 1011.9 |
| 20260904110303 | 71 | 279 | 2.0 | 7.0 | 0.00 | 0.07 | 0.04 | 95 | 1011.8 |
| 20260904105804 | 71 | 273 | 1.0 | 3.0 | 0.00 | 0.07 | 0.04 | 95 | 1011.7 |
| 20260904105306 | 71 | 293 | 1.0 | 3.0 | 0.00 | 0.07 | 0.04 | 95 | 1011.8 |
| 20260904104804 | 71 | 218 | 1.0 | 3.0 | 0.00 | 0.07 | 0.04 | 95 | 1011.7 |
| 20260904103803 | 72 | 254 | 1.0 | 3.0 | 0.01 | 0.07 | 0.04 | 95 | 1011.8 |
| 20260904102803 | 72 | 249 | 2.0 | 3.0 | 0.01 | 0.07 | 0.04 | 95 | 1011.7 |
| 20260904102306 | 72 | 199 | 2.0 | 3.0 | 0.01 | 0.07 | 0.04 | 95 | 1011.4 |
| 20260904101804 | 72 | 175 | 3.0 | 3.0 | 0.01 | 0.07 | 0.04 | 95 | 1011.3 |
| 20260904100804 | 72 | 65 | 0.0 | 0.0 | 0.01 | 0.07 | 0.04 | 95 | 1011.5 |
| 20260904100303 | 72 | 65 | 1.0 | 3.0 | 0.01 | 0.07 | 0.04 | 95 | 1011.4 |
| 20260904095306 | 72 | 352 | 2.0 | 5.0 | 0.01 | 0.07 | 0.04 | 95 | 1011.7 |
| 20260904094303 | 72 | 316 | 2.0 | 7.0 | 0.00 | 0.06 | 0.03 | 95 | 1012.2 |
| 20260904093803 | 72 | 289 | 3.0 | 7.0 | 0.00 | 0.06 | 0.03 | 95 | 1012.0 |
| 20260904093304 | 72 | 109 | 2.0 | 3.0 | 0.00 | 0.06 | 0.03 | 94 | 1011.5 |
| 20260904092803 | 72 | 109 | 0.0 | 0.0 | 0.00 | 0.06 | 0.03 | 94 | 1011.2 |
| 20260904092306 | 72 | 109 | 1.0 | 3.0 | 0.00 | 0.06 | 0.03 | 95 | 1011.1 |
| 20260904091803 | 72 | 23 | 2.0 | 3.0 | 0.00 | 0.06 | 0.03 | 94 | 1011.2 |
| 20260904091303 | 72 | 23 | 1.0 | 2.0 | 0.00 | 0.06 | 0.03 | 94 | 1011.1 |
| 20260904090803 | 72 | 23 | 1.0 | 2.0 | 0.00 | 0.06 | 0.03 | 94 | 1011.1 |
| 20260904085804 | 72 | 23 | 2.0 | 3.0 | 0.00 | 0.06 | 0.03 | 94 | 1011.2 |
| 20260904084804 | 72 | 23 | 2.0 | 3.0 | 0.00 | 0.06 | 0.03 | 94 | 1011.3 |
| 20260904084304 | 72 | 23 | 2.0 | 3.0 | 0.00 | 0.06 | 0.03 | 94 | 1011.3 |
| 20260904083804 | 72 | 280 | 0.0 | 3.0 | 0.00 | 0.06 | 0.03 | 94 | 1011.3 |
| 20260904083304 | 72 | 280 | 0.0 | 3.0 | 0.00 | 0.06 | 0.03 | 94 | 1011.3 |
| 20260904082803 | 72 | 219 | 2.0 | 3.0 | 0.00 | 0.06 | 0.03 | 94 | 1011.3 |
| 20260904082306 | 72 | 236 | 2.0 | 3.0 | 0.00 | 0.06 | 0.03 | 94 | 1011.3 |
| 20260904081804 | 72 | 216 | 2.0 | 3.0 | 0.00 | 0.06 | 0.03 | 94 | 1011.3 |
| 20260904081303 | 72 | 235 | 3.0 | 5.0 | 0.00 | 0.06 | 0.03 | 94 | 1011.3 |
| 20260904080304 | 72 | 198 | 3.0 | 6.0 | 0.00 | 0.06 | 0.03 | 94 | 1011.5 |
| 20260904075803 | 72 | 219 | 2.0 | 3.0 | 0.00 | 0.06 | 0.03 | 93 | 1011.5 |
| 20260904073803 | 72 | 181 | 3.0 | 7.0 | 0.00 | 0.06 | 0.03 | 93 | 1011.7 |
| 20260904073304 | 72 | 225 | 2.0 | 3.0 | 0.00 | 0.06 | 0.03 | 93 | 1011.6 |
| 20260904072804 | 72 | 225 | 2.0 | 3.0 | 0.00 | 0.06 | 0.03 | 93 | 1011.4 |
| 20260904071304 | 72 | 225 | 2.0 | 3.0 | 0.00 | 0.06 | 0.03 | 93 | 1011.2 |
| 20260904070303 | 72 | 185 | 2.0 | 3.0 | 0.00 | 0.06 | 0.03 | 92 | 1011.2 |
| 20260904065804 | 72 | 198 | 2.0 | 3.0 | 0.00 | 0.06 | 0.03 | 92 | 1011.2 |
| 20260904065306 | 72 | 198 | 2.0 | 3.0 | 0.00 | 0.06 | 0.03 | 92 | 1011.2 |
| 20260904064303 | 72 | 196 | 3.0 | 5.0 | 0.00 | 0.06 | 0.03 | 92 | 1011.0 |
| 20260904063804 | 72 | 199 | 2.0 | 7.0 | 0.00 | 0.06 | 0.03 | 92 | 1010.9 |
| 20260904062803 | 72 | 189 | 2.0 | 5.0 | 0.00 | 0.06 | 0.03 | 92 | 1010.7 |
| 20260904062306 | 72 | 192 | 3.0 | 5.0 | 0.00 | 0.06 | 0.03 | 91 | 1010.7 |
| 20260904061803 | 72 | 186 | 2.0 | 3.0 | 0.00 | 0.06 | 0.03 | 91 | 1010.8 |
| 20260904061304 | 72 | 220 | 2.0 | 3.0 | 0.00 | 0.06 | 0.03 | 91 | 1010.9 |
| 20260904060805 | 72 | 238 | 1.0 | 3.0 | 0.00 | 0.06 | 0.03 | 91 | 1010.8 |
| 20260904055803 | 72 | 247 | 3.0 | 7.0 | 0.00 | 0.06 | 0.03 | 91 | 1010.9 |
| 20260904055306 | 72 | 265 | 2.0 | 6.0 | 0.00 | 0.06 | 0.03 | 91 | 1010.9 |
| 20260904054803 | 72 | 295 | 3.0 | 8.0 | 0.00 | 0.06 | 0.03 | 91 | 1010.9 |
| 20260904054305 | 73 | 259 | 2.0 | 3.0 | 0.00 | 0.06 | 0.03 | 91 | 1011.0 |
| 20260904053804 | 73 | 274 | 2.0 | 8.0 | 0.00 | 0.06 | 0.03 | 91 | 1011.0 |
| 20260904053304 | 73 | 280 | 7.0 | 12.0 | 0.00 | 0.06 | 0.03 | 91 | 1010.8 |
| 20260904052804 | 73 | 288 | 3.0 | 6.0 | 0.00 | 0.06 | 0.03 | 91 | 1010.8 |
| 20260904052307 | 73 | 210 | 5.0 | 6.0 | 0.00 | 0.06 | 0.03 | 90 | 1010.8 |
| 20260904051804 | 73 | 224 | 3.0 | 9.0 | 0.01 | 0.06 | 0.03 | 90 | 1010.8 |
| 20260904051303 | 73 | 268 | 2.0 | 10.0 | 0.03 | 0.06 | 0.03 | 90 | 1011.1 |
| 20260904050804 | 73 | 243 | 5.0 | 12.0 | 0.03 | 0.06 | 0.03 | 90 | 1011.3 |
| 20260904050304 | 73 | 229 | 4.0 | 12.0 | 0.03 | 0.06 | 0.03 | 89 | 1011.2 |
| 20260904045804 | 73 | 236 | 6.0 | 12.0 | 0.00 | 0.06 | 0.03 | 89 | 1011.2 |
| 20260904045306 | 74 | 218 | 5.0 | 10.0 | 0.00 | 0.06 | 0.03 | 88 | 1011.2 |
| 20260904044304 | 74 | 203 | 9.0 | 12.0 | 0.00 | 0.06 | 0.03 | 87 | 1011.1 |
| 20260904043804 | 75 | 266 | 7.0 | 13.0 | 0.00 | 0.06 | 0.03 | 86 | 1011.1 |
| 20260904043303 | 75 | 298 | 10.0 | 14.0 | 0.00 | 0.06 | 0.03 | 86 | 1011.1 |
| 20260904042803 | 75 | 303 | 7.0 | 14.0 | 0.00 | 0.06 | 0.03 | 85 | 1011.3 |
| 20260904041804 | 77 | 325 | 13.0 | 26.0 | 0.02 | 0.05 | 0.02 | 83 | 1012.2 |
| 20260904041304 | 77 | 311 | 14.0 | 25.0 | 0.00 | 0.03 | 0.00 | 82 | 1012.3 |
| 20260904040304 | 78 | 314 | 13.0 | 21.0 | 0.00 | 0.03 | 0.00 | 79 | 1011.7 |
| 20260904035804 | 78 | 330 | 8.0 | 16.0 | 0.00 | 0.03 | 0.03 | 80 | 1011.6 |
| 20260904035306 | 78 | 301 | 7.0 | 12.0 | 0.00 | 0.03 | 0.03 | 79 | 1010.9 |
| 20260904034804 | 78 | 302 | 8.0 | 13.0 | 0.00 | 0.03 | 0.03 | 79 | 1011.0 |
| 20260904034303 | 78 | 307 | 8.0 | 12.0 | 0.00 | 0.03 | 0.03 | 78 | 1011.0 |
| 20260904033303 | 80 | 309 | 9.0 | 16.0 | 0.00 | 0.03 | 0.03 | 78 | 1011.2 |
| 20260904031804 | 82 | 300 | 9.0 | 22.0 | 0.00 | 0.03 | 0.03 | 76 | 1011.9 |
| 20260904031303 | 82 | 313 | 12.0 | 28.0 | 0.00 | 0.03 | 0.03 | 78 | 1012.3 |
| 20260904030805 | 83 | 322 | 13.0 | 23.0 | 0.00 | 0.03 | 0.03 | 83 | 1012.4 |
| 20260904030304 | 83 | 324 | 4.0 | 7.0 | 0.00 | 0.03 | 0.03 | 83 | 1011.8 |
| 20260904025804 | 83 | 302 | 2.0 | 3.0 | 0.00 | 0.03 | 0.03 | 83 | 1011.7 |
| 20260904025306 | 83 | 271 | 1.0 | 3.0 | 0.00 | 0.03 | 0.03 | 82 | 1011.6 |
| 20260904024804 | 83 | 233 | 1.0 | 3.0 | 0.00 | 0.03 | 0.03 | 82 | 1011.6 |
| 20260904024304 | 83 | 295 | 1.0 | 7.0 | 0.00 | 0.03 | 0.03 | 82 | 1011.7 |
| 20260904023804 | 83 | 262 | 1.0 | 3.0 | 0.00 | 0.03 | 0.03 | 82 | 1011.6 |
| 20260904022306 | 83 | 287 | 1.0 | 3.0 | 0.00 | 0.03 | 0.03 | 82 | 1011.7 |
| 20260904021805 | 83 | 239 | 1.0 | 3.0 | 0.00 | 0.03 | 0.03 | 81 | 1011.5 |
| 20260904021304 | 83 | 231 | 2.0 | 3.0 | 0.00 | 0.03 | 0.03 | 81 | 1011.5 |
| 20260904020303 | 83 | 236 | 2.0 | 5.0 | 0.00 | 0.03 | 0.03 | 81 | 1011.5 |
| 20260904015804 | 83 | 213 | 2.0 | 7.0 | 0.00 | 0.03 | 0.03 | 81 | 1011.6 |
| 20260904014803 | 83 | 232 | 3.0 | 6.0 | 0.00 | 0.03 | 0.03 | 80 | 1011.6 |
| 20260904014304 | 83 | 245 | 1.0 | 3.0 | 0.00 | 0.03 | 0.03 | 80 | 1011.7 |
| 20260904013804 | 83 | 245 | 1.0 | 3.0 | 0.00 | 0.03 | 0.03 | 80 | 1011.5 |
| 20260904013303 | 83 | 225 | 1.0 | 3.0 | 0.00 | 0.03 | 0.03 | 80 | 1011.4 |
| 20260904012803 | 84 | 225 | 2.0 | 3.0 | 0.00 | 0.03 | 0.03 | 79 | 1011.3 |
| 20260904012306 | 84 | 225 | 1.0 | 3.0 | 0.00 | 0.03 | 0.03 | 79 | 1011.3 |
| 20260904011803 | 84 | 214 | 2.0 | 3.0 | 0.00 | 0.03 | 0.03 | 79 | 1011.2 |
| 20260904011303 | 84 | 229 | 2.0 | 3.0 | 0.00 | 0.03 | 0.03 | 79 | 1011.4 |
| 20260904010803 | 84 | 211 | 2.0 | 3.0 | 0.00 | 0.03 | 0.03 | 78 | 1011.4 |
| 20260904010304 | 84 | 234 | 2.0 | 3.0 | 0.00 | 0.03 | 0.03 | 78 | 1011.5 |
| 20260904005804 | 84 | 221 | 2.0 | 3.0 | 0.00 | 0.03 | 0.03 | 78 | 1011.7 |
| 20260904005306 | 84 | 212 | 2.0 | 5.0 | 0.00 | 0.03 | 0.03 | 77 | 1011.7 |
| 20260904004805 | 85 | 227 | 3.0 | 6.0 | 0.00 | 0.03 | 0.03 | 77 | 1011.8 |
| 20260904003305 | 85 | 230 | 3.0 | 6.0 | 0.00 | 0.03 | 0.03 | 75 | 1012.0 |
| 20260904002805 | 85 | 291 | 1.0 | 3.0 | 0.00 | 0.03 | 0.03 | 75 | 1012.0 |
| 20260904002306 | 85 | 291 | 2.0 | 3.0 | 0.00 | 0.03 | 0.03 | 74 | 1012.0 |
| 20260904001805 | 86 | 291 | 2.0 | 3.0 | 0.00 | 0.03 | 0.03 | 74 | 1012.1 |
| 20260904001305 | 86 | 243 | 1.0 | 3.0 | 0.00 | 0.03 | 0.03 | 74 | 1012.1 |
| 20260904000804 | 86 | 233 | 2.0 | 3.0 | 0.00 | 0.03 | 0.03 | 74 | 1012.1 |
| 20260904000304 | 86 | 253 | 2.0 | 3.0 | 0.00 | 0.03 | 0.03 | 73 | 1012.0 |
| 20260903235804 | 86 | 302 | 2.0 | 7.0 | 0.00 | 0.03 | 0.03 | 73 | 1011.9 |
| 20260903235305 | 86 | 278 | 2.0 | 3.0 | 0.00 | 0.03 | 0.03 | 73 | 1011.7 |
| 20260903234805 | 86 | 290 | 1.0 | 3.0 | 0.00 | 0.03 | 0.03 | 72 | 1011.6 |
| 20260903234305 | 87 | 258 | 2.0 | 5.0 | 0.00 | 0.03 | 0.03 | 72 | 1011.5 |
| 20260903233805 | 87 | 245 | 1.0 | 3.0 | 0.00 | 0.03 | 0.03 | 72 | 1011.5 |
| 20260903233305 | 87 | 245 | 2.0 | 3.0 | 0.00 | 0.03 | 0.03 | 71 | 1011.4 |
| 20260903232804 | 87 | 241 | 1.0 | 3.0 | 0.00 | 0.03 | 0.03 | 71 | 1011.4 |
| 20260903232306 | 87 | 241 | 1.0 | 3.0 | 0.00 | 0.03 | 0.03 | 71 | 1011.3 |
| 20260903231805 | 88 | 243 | 2.0 | 3.0 | 0.00 | 0.03 | 0.03 | 70 | 1011.2 |
| 20260903231305 | 88 | 243 | 3.0 | 7.0 | 0.00 | 0.03 | 0.03 | 70 | 1011.2 |
| 20260903230804 | 88 | 274 | 1.0 | 3.0 | 0.00 | 0.03 | 0.03 | 70 | 1011.3 |
| 20260903230305 | 88 | 274 | 2.0 | 3.0 | 0.00 | 0.03 | 0.03 | 69 | 1011.3 |
| 20260903225804 | 88 | 331 | 1.0 | 5.0 | 0.00 | 0.03 | 0.03 | 69 | 1011.4 |
| 20260903225306 | 88 | 284 | 2.0 | 3.0 | 0.00 | 0.03 | 0.03 | 69 | 1011.2 |
| 20260903224805 | 89 | 284 | 2.0 | 3.0 | 0.00 | 0.03 | 0.03 | 68 | 1011.2 |
| 20260903224305 | 89 | 280 | 3.0 | 5.0 | 0.00 | 0.03 | 0.03 | 68 | 1011.0 |
| 20260903223805 | 89 | 240 | 2.0 | 8.0 | 0.00 | 0.03 | 0.03 | 67 | 1011.1 |
| 20260903223304 | 89 | 278 | 2.0 | 5.0 | 0.00 | 0.03 | 0.03 | 67 | 1011.2 |
| 20260903222805 | 89 | 250 | 3.0 | 8.0 | 0.00 | 0.03 | 0.03 | 67 | 1011.2 |
| 20260903222306 | 90 | 230 | 2.0 | 7.0 | 0.00 | 0.03 | 0.03 | 66 | 1011.1 |
| 20260903221804 | 90 | 208 | 3.0 | 6.0 | 0.00 | 0.03 | 0.03 | 65 | 1011.1 |
| 20260903221305 | 90 | 263 | 2.0 | 7.0 | 0.00 | 0.03 | 0.03 | 65 | 1011.1 |
| 20260903220805 | 90 | 205 | 1.0 | 5.0 | 0.00 | 0.03 | 0.03 | 65 | 1011.2 |
| 20260903220304 | 90 | 252 | 5.0 | 12.0 | 0.00 | 0.03 | 0.03 | 65 | 1011.1 |
| 20260903215306 | 90 | 224 | 3.0 | 7.0 | 0.00 | 0.03 | 0.03 | 65 | 1011.2 |
| 20260903214804 | 90 | 255 | 2.0 | 6.0 | 0.00 | 0.03 | 0.03 | 65 | 1011.2 |
| 20260903213804 | 90 | 284 | 2.0 | 7.0 | 0.00 | 0.03 | 0.03 | 65 | 1011.3 |
| 20260903213304 | 91 | 274 | 3.0 | 3.0 | 0.00 | 0.03 | 0.03 | 64 | 1011.3 |
| 20260903212804 | 91 | 273 | 5.0 | 7.0 | 0.00 | 0.03 | 0.03 | 64 | 1011.3 |
| 20260903212306 | 91 | 220 | 2.0 | 5.0 | 0.00 | 0.03 | 0.03 | 64 | 1011.2 |
| 20260903211805 | 90 | 214 | 2.0 | 7.0 | 0.00 | 0.03 | 0.03 | 64 | 1011.3 |
| 20260903211305 | 90 | 278 | 3.0 | 7.0 | 0.00 | 0.03 | 0.03 | 65 | 1011.2 |
| 20260903210805 | 90 | 246 | 3.0 | 8.0 | 0.00 | 0.03 | 0.03 | 64 | 1011.2 |
| 20260903210304 | 90 | 293 | 5.0 | 7.0 | 0.00 | 0.03 | 0.03 | 64 | 1011.2 |
| 20260903205804 | 90 | 263 | 6.0 | 12.0 | 0.00 | 0.03 | 0.03 | 64 | 1011.3 |
| 20260903205306 | 90 | 274 | 5.0 | 10.0 | 0.00 | 0.03 | 0.03 | 64 | 1011.2 |
| 20260903204805 | 90 | 269 | 5.0 | 12.0 | 0.00 | 0.03 | 0.03 | 65 | 1011.4 |
| 20260903204304 | 90 | 294 | 3.0 | 9.0 | 0.00 | 0.03 | 0.03 | 65 | 1011.5 |
| 20260903203804 | 90 | 284 | 5.0 | 12.0 | 0.00 | 0.03 | 0.03 | 66 | 1011.6 |
| 20260903203305 | 89 | 274 | 3.0 | 8.0 | 0.00 | 0.03 | 0.03 | 65 | 1011.7 |
| 20260903202806 | 89 | 295 | 6.0 | 10.0 | 0.00 | 0.03 | 0.03 | 66 | 1011.8 |
| 20260903200804 | 88 | 276 | 5.0 | 12.0 | 0.00 | 0.03 | 0.03 | 66 | 1012.0 |
| 20260903200304 | 88 | 219 | 3.0 | 12.0 | 0.00 | 0.03 | 0.03 | 67 | 1012.1 |
| 20260903195805 | 88 | 227 | 2.0 | 6.0 | 0.00 | 0.03 | 0.03 | 68 | 1012.1 |
| 20260903195306 | 88 | 281 | 2.0 | 5.0 | 0.00 | 0.03 | 0.03 | 68 | 1012.2 |
| 20260903194805 | 87 | 279 | 4.0 | 9.0 | 0.00 | 0.03 | 0.03 | 70 | 1012.4 |
| 20260903194305 | 87 | 253 | 2.0 | 3.0 | 0.00 | 0.03 | 0.03 | 70 | 1012.4 |
| 20260903193306 | 86 | 322 | 3.0 | 7.0 | 0.00 | 0.03 | 0.03 | 71 | 1012.6 |
| 20260903192804 | 86 | 289 | 2.0 | 7.0 | 0.00 | 0.03 | 0.03 | 70 | 1012.7 |
| 20260903192306 | 86 | 289 | 3.0 | 7.0 | 0.00 | 0.03 | 0.03 | 69 | 1012.7 |
| 20260903191804 | 87 | 240 | 6.0 | 12.0 | 0.00 | 0.03 | 0.03 | 69 | 1012.9 |
| 20260903191304 | 87 | 286 | 6.0 | 10.0 | 0.00 | 0.03 | 0.03 | 69 | 1012.9 |
| 20260903190804 | 87 | 288 | 4.0 | 9.0 | 0.00 | 0.03 | 0.03 | 69 | 1013.0 |
| 20260903190304 | 87 | 248 | 2.0 | 8.0 | 0.00 | 0.03 | 0.03 | 70 | 1013.1 |
| 20260903185804 | 87 | 281 | 5.0 | 12.0 | 0.00 | 0.03 | 0.03 | 69 | 1013.0 |
| 20260903185306 | 87 | 248 | 6.0 | 14.0 | 0.00 | 0.03 | 0.03 | 68 | 1013.0 |
| 20260903184805 | 87 | 275 | 6.0 | 12.0 | 0.00 | 0.03 | 0.03 | 71 | 1013.1 |
| 20260903184305 | 87 | 307 | 5.0 | 9.0 | 0.00 | 0.03 | 0.03 | 71 | 1013.0 |
| 20260903183804 | 86 | 301 | 1.0 | 3.0 | 0.00 | 0.03 | 0.03 | 72 | 1013.0 |
| 20260903183304 | 86 | 243 | 5.0 | 10.0 | 0.00 | 0.03 | 0.03 | 72 | 1013.0 |
| 20260903182804 | 85 | 232 | 5.0 | 12.0 | 0.00 | 0.03 | 0.03 | 74 | 1013.1 |
| 20260903182306 | 85 | 253 | 4.0 | 12.0 | 0.00 | 0.03 | 0.03 | 74 | 1013.1 |
| 20260903181804 | 85 | 232 | 5.0 | 8.0 | 0.00 | 0.03 | 0.03 | 75 | 1013.1 |
| 20260903181305 | 84 | 263 | 4.0 | 8.0 | 0.00 | 0.03 | 0.03 | 76 | 1013.0 |
| 20260903180805 | 83 | 280 | 5.0 | 14.0 | 0.00 | 0.03 | 0.03 | 77 | 1013.1 |
| 20260903180304 | 83 | 269 | 5.0 | 12.0 | 0.00 | 0.03 | 0.03 | 78 | 1013.4 |
| 20260903175804 | 82 | 277 | 5.0 | 12.0 | 0.00 | 0.03 | 0.03 | 80 | 1013.5 |
| 20260903175306 | 82 | 287 | 6.0 | 10.0 | 0.00 | 0.04 | 0.03 | 82 | 1013.5 |
| 20260903174305 | 81 | 218 | 5.0 | 9.0 | 0.00 | 0.04 | 0.03 | 86 | 1013.5 |
| 20260903173805 | 80 | 267 | 2.0 | 5.0 | 0.00 | 0.04 | 0.03 | 87 | 1013.7 |
| 20260903173305 | 80 | 249 | 1.0 | 10.0 | 0.00 | 0.04 | 0.03 | 88 | 1013.8 |
| 20260903172804 | 79 | 125 | 4.0 | 12.0 | 0.00 | 0.06 | 0.03 | 90 | 1013.8 |
| 20260903171304 | 78 | 255 | 3.0 | 8.0 | 0.02 | 0.15 | 0.03 | 91 | 1014.1 |
| 20260903170805 | 78 | 252 | 2.0 | 7.0 | 0.02 | 0.24 | 0.03 | 91 | 1014.0 |
| 20260903170305 | 78 | 204 | 2.0 | 10.0 | 0.02 | 0.38 | 0.03 | 92 | 1014.0 |
| 20260903165805 | 78 | 253 | 3.0 | 10.0 | 0.02 | 0.38 | 0.03 | 92 | 1013.9 |
| 20260903165306 | 78 | 225 | 5.0 | 10.0 | 0.02 | 0.38 | 0.03 | 92 | 1013.9 |
| 20260903164805 | 77 | 230 | 6.0 | 12.0 | 0.03 | 0.38 | 0.03 | 92 | 1014.1 |
| 20260903164305 | 78 | 242 | 5.0 | 13.0 | 0.03 | 0.38 | 0.03 | 91 | 1014.2 |
| 20260903163805 | 78 | 227 | 5.0 | 10.0 | 0.03 | 0.38 | 0.03 | 91 | 1014.2 |
| 20260903162804 | 78 | 278 | 2.0 | 9.0 | 0.03 | 0.38 | 0.03 | 90 | 1013.8 |
| 20260903162306 | 78 | 164 | 1.0 | 6.0 | 0.03 | 0.38 | 0.03 | 90 | 1014.1 |
| 20260903161804 | 78 | 208 | 1.0 | 3.0 | 0.02 | 0.37 | 0.02 | 90 | 1014.8 |
| 20260903161306 | 78 | 205 | 3.0 | 5.0 | 0.01 | 0.36 | 0.01 | 89 | 1015.1 |
| 20260903160805 | 79 | 178 | 2.0 | 5.0 | 0.01 | 0.36 | 0.01 | 89 | 1015.0 |
| 20260903160304 | 79 | 169 | 1.0 | 3.0 | 0.01 | 0.36 | 0.01 | 88 | 1015.1 |
| 20260903155805 | 79 | 291 | 1.0 | 7.0 | 0.01 | 0.36 | 0.01 | 88 | 1015.6 |
| 20260903155306 | 79 | 282 | 2.0 | 7.0 | 0.01 | 0.36 | 0.01 | 88 | 1016.0 |